Weather in Sergiyevskoye

Russia / Stavropol Krai     44°57′19″N   42°42′32″E
temp.,
°C
wind,
m/s
gust,
m/s
humid.,
%
clouds,
%
prec.,
mm/h
press.,
hPa
HPBL,
m
25 may, wed
wed2500:00+9wsw369399 0.1 1016208
03:00+8wsw369469 0.2 1017164
06:00+10wsw269267 0.1 1018276
09:00+15wnw45625 0.8 10181216
12:00+17wnw674787 0.2 10182355
15:00+17nw5651100 0.2 10182040
18:00+16nw356124 0.0 1020541
21:00+11sw22759 0.0 102212
26 may, thu
thu2600:00+10ssw33795 0.0 102123
03:00+9ssw22835 0.0 102217
06:00+10ssw237888 0.0 102290
09:00+16wsw34612 0.0 1022816
12:00+19wnw234221 0.0 10212085
15:00+20wnw124028 0.0 10202239
18:00+19nne1255100 0.0 1019351
21:00+13e116472 0.0 102010
27 may, fri
fri2700:00+12ssw2270100 0.0 101912
03:00+12ssw227188 0.0 101824
06:00+12sw2274100 0.0 101947
09:00+17w465855 0.0 1019734
12:00+20wnw58435 0.0 10191293
15:00+20wnw79530 0.0 10181353
18:00+19w576813 0.0 1018758
21:00+14sw22840 0.0 101919
28 may, sat
sat2800:00+13ssw22870 0.0 101914
03:00+12ssw22885 0.0 101811
06:00+14s22820 0.0 101875
09:00+20se33590 0.0 1017845
12:00+23se44520 0.0 10161377
15:00+24ese45513 0.0 10151668
18:00+23se46630 0.0 1014325
21:00+18ese22750 0.0 101511
29 may, sun
sun2900:00+17se512690 0.0 1014242
03:00+14se22700 0.0 101426
06:00+15se12690 0.0 101567
09:00+21sse22500 0.0 1014438
12:00+26nne12400 0.0 1014851
15:00+27nne34400 0.0 10131419
18:00+27nne22540 0.0 101456
21:00+20se11615 0.0 101511